Volver al catálogo

SITRO-AIS-43

ActivoComunicacionesPO
NORAD 61755·PAYLOAD·🇷🇺 Russia
Este nombre de satélite aún no ha sido confirmado por fuentes oficiales.

Lanzado Nov 4, 2024 desde Vostochny Cosmodrome

Loading…

Próximos Pases (próximas 24 horas)

TLE

ActualizadoSource: Space-Track

Época: Sep 14, 2026, 21:52 UTC

1 61755U 24199W   26257.91138440  .00419114  72738-4  10477-2 0  9993
2 61755  97.2641 142.1123 0003452 154.3219 205.8230 15.95743687151954

Sigue SITRO-AIS-43 en tiempo real con AllMySat

Download on the App Store